| time (UTC) | temp F | wind direction | speed knots | gust knots | rain 1hr in | rain 24hr in | rain mn in | humidity % | barometer mb |
| 20260507132701 | 52 | 163 | 0.9 | 2.6 | 0.00 | 0.00 | 0.00 | 66 | 1019.5 |
| 20260507132157 | 51 | 172 | 1.7 | 1.7 | 0.00 | 0.00 | 0.00 | 67 | 1019.4 |
| 20260507131654 | 51 | 159 | 0.0 | 0.0 | 0.00 | 0.00 | 0.00 | 71 | 1019.3 |
| 20260507131152 | 50 | 165 | 0.9 | 1.7 | 0.00 | 0.00 | 0.00 | 70 | 1019.5 |
| 20260507130648 | 50 | 165 | 0.0 | 0.9 | 0.00 | 0.00 | 0.00 | 71 | 1019.5 |
| 20260507130146 | 49 | 165 | 0.0 | 0.9 | 0.00 | 0.00 | 0.00 | 74 | 1019.3 |
| 20260507125645 | 48 | 162 | 0.0 | 0.0 | 0.00 | 0.00 | 0.00 | 75 | 1019.3 |
| 20260507125142 | 47 | 161 | 0.0 | 0.9 | 0.00 | 0.00 | 0.00 | 75 | 1019.3 |
| 20260507124638 | 46 | 172 | 0.0 | 0.0 | 0.00 | 0.00 | 0.00 | 77 | 1019.3 |
| 20260507124136 | 46 | 176 | 0.9 | 1.7 | 0.00 | 0.00 | 0.00 | 76 | 1019.2 |
| 20260507123634 | 47 | 170 | 0.0 | 0.9 | 0.00 | 0.00 | 0.00 | 78 | 1019.4 |
| 20260507123131 | 47 | 173 | 0.0 | 0.9 | 0.00 | 0.00 | 0.00 | 78 | 1019.0 |
| 20260507122626 | 47 | 162 | 0.0 | 0.0 | 0.00 | 0.00 | 0.00 | 79 | 1019.2 |
| 20260507122121 | 47 | 161 | 0.0 | 0.0 | 0.00 | 0.00 | 0.00 | 81 | 1019.2 |
| 20260507121618 | 45 | 164 | 0.0 | 0.0 | 0.00 | 0.00 | 0.00 | 84 | 1019.1 |
| 20260507121113 | 44 | 153 | 0.0 | 0.0 | 0.00 | 0.00 | 0.00 | 86 | 1019.2 |
| 20260507120609 | 42 | 164 | 0.0 | 0.9 | 0.00 | 0.00 | 0.00 | 88 | 1019.1 |
| 20260507120106 | 42 | 173 | 0.0 | 0.0 | 0.00 | 0.00 | 0.00 | 90 | 1018.9 |
| 20260507115603 | 42 | 171 | 0.0 | 0.0 | 0.00 | 0.00 | 0.00 | 91 | 1019.1 |
| 20260507115059 | 42 | 170 | 0.0 | 0.0 | 0.00 | 0.00 | 0.00 | 91 | 1019.1 |
| 20260507114554 | 42 | 170 | 0.0 | 0.0 | 0.00 | 0.00 | 0.00 | 92 | 1019.0 |
| 20260507114052 | 42 | 170 | 0.0 | 0.0 | 0.00 | 0.00 | 0.00 | 93 | 1019.1 |
| 20260507113549 | 42 | 170 | 0.0 | 0.0 | 0.00 | 0.00 | 0.00 | 93 | 1018.8 |
| 20260507113046 | 41 | 161 | 0.0 | 0.0 | 0.00 | 0.00 | 0.00 | 93 | 1018.8 |
| 20260507112544 | 41 | 161 | 0.0 | 0.0 | 0.00 | 0.00 | 0.00 | 93 | 1018.7 |
| 20260507112040 | 41 | 161 | 0.0 | 0.0 | 0.00 | 0.00 | 0.00 | 94 | 1018.4 |
| 20260507111538 | 41 | 161 | 0.0 | 0.0 | 0.00 | 0.00 | 0.00 | 94 | 1018.6 |
| 20260507111034 | 41 | 161 | 0.0 | 0.0 | 0.00 | 0.00 | 0.00 | 93 | 1018.2 |
| 20260507110531 | 41 | 161 | 0.0 | 0.0 | 0.00 | 0.00 | 0.00 | 93 | 1018.5 |
| 20260507110027 | 41 | 161 | 0.0 | 0.0 | 0.00 | 0.00 | 0.00 | 92 | 1018.4 |
| 20260507105524 | 41 | 161 | 0.0 | 0.0 | 0.00 | 0.00 | 0.00 | 92 | 1018.6 |
| 20260507105020 | 41 | 161 | 0.0 | 0.0 | 0.00 | 0.00 | 0.00 | 92 | 1018.4 |
| 20260507104518 | 42 | 161 | 0.0 | 0.0 | 0.00 | 0.00 | 0.00 | 92 | 1018.7 |
| 20260507104015 | 42 | 161 | 0.0 | 0.0 | 0.00 | 0.00 | 0.00 | 93 | 1018.4 |
| 20260507103510 | 42 | 161 | 0.0 | 0.0 | 0.00 | 0.00 | 0.00 | 93 | 1018.4 |
| 20260507103007 | 41 | 161 | 0.0 | 0.0 | 0.00 | 0.00 | 0.00 | 94 | 1018.5 |
| 20260507102504 | 41 | 161 | 0.0 | 0.0 | 0.00 | 0.00 | 0.00 | 94 | 1018.7 |
| 20260507102000 | 41 | 161 | 0.0 | 0.0 | 0.00 | 0.00 | 0.00 | 94 | 1018.6 |
| 20260507101455 | 41 | 161 | 0.0 | 0.0 | 0.00 | 0.00 | 0.00 | 94 | 1018.4 |
| 20260507100952 | 41 | 160 | 0.0 | 0.0 | 0.00 | 0.00 | 0.00 | 95 | 1018.5 |
| 20260507100449 | 40 | 160 | 0.0 | 0.0 | 0.00 | 0.00 | 0.00 | 95 | 1018.3 |
| 20260507095947 | 40 | 161 | 0.0 | 0.0 | 0.00 | 0.00 | 0.00 | 95 | 1018.3 |
| 20260507095445 | 40 | 161 | 0.0 | 0.0 | 0.00 | 0.00 | 0.00 | 96 | 1018.4 |
| 20260507094941 | 39 | 161 | 0.0 | 0.0 | 0.00 | 0.00 | 0.00 | 96 | 1018.6 |
| 20260507094437 | 39 | 153 | 0.0 | 0.0 | 0.00 | 0.00 | 0.00 | 97 | 1018.9 |
| 20260507093934 | 39 | 152 | 0.0 | 0.0 | 0.00 | 0.00 | 0.00 | 97 | 1018.7 |
| 20260507093432 | 39 | 152 | 0.0 | 0.0 | 0.00 | 0.00 | 0.00 | 97 | 1018.6 |
| 20260507092931 | 38 | 151 | 0.0 | 0.0 | 0.00 | 0.00 | 0.00 | 97 | 1018.7 |
| 20260507092426 | 37 | 150 | 0.0 | 0.0 | 0.00 | 0.00 | 0.00 | 96 | 1018.5 |
| 20260507091923 | 37 | 150 | 0.0 | 0.0 | 0.00 | 0.00 | 0.00 | 96 | 1018.8 |
| 20260507091420 | 38 | 150 | 0.0 | 0.0 | 0.00 | 0.00 | 0.00 | 96 | 1018.6 |
| 20260507090915 | 37 | 150 | 0.0 | 0.0 | 0.00 | 0.00 | 0.00 | 96 | 1018.6 |
| 20260507090412 | 37 | 150 | 0.0 | 0.0 | 0.00 | 0.00 | 0.00 | 96 | 1018.4 |
| 20260507085909 | 37 | 150 | 0.0 | 0.0 | 0.00 | 0.00 | 0.00 | 96 | 1018.5 |
| 20260507085406 | 38 | 150 | 0.0 | 0.0 | 0.00 | 0.00 | 0.00 | 96 | 1018.5 |
| 20260507084903 | 38 | 150 | 0.0 | 0.0 | 0.00 | 0.00 | 0.00 | 96 | 1018.3 |
| 20260507084359 | 38 | 150 | 0.0 | 0.0 | 0.00 | 0.00 | 0.00 | 96 | 1018.4 |
| 20260507083857 | 38 | 150 | 0.0 | 0.0 | 0.00 | 0.00 | 0.00 | 95 | 1018.3 |
| 20260507083353 | 38 | 150 | 0.0 | 0.0 | 0.00 | 0.00 | 0.00 | 95 | 1018.2 |
| 20260507082849 | 38 | 150 | 0.0 | 0.0 | 0.00 | 0.00 | 0.00 | 95 | 1018.3 |
| 20260507082345 | 38 | 150 | 0.0 | 0.0 | 0.00 | 0.00 | 0.00 | 95 | 1018.4 |
| 20260507081843 | 39 | 150 | 0.0 | 0.0 | 0.00 | 0.00 | 0.00 | 95 | 1018.1 |
| 20260507081338 | 39 | 150 | 0.0 | 0.0 | 0.00 | 0.00 | 0.00 | 95 | 1018.4 |
| 20260507080836 | 39 | 150 | 0.0 | 0.0 | 0.00 | 0.00 | 0.00 | 95 | 1018.4 |
| 20260507080331 | 39 | 150 | 0.0 | 0.0 | 0.00 | 0.00 | 0.00 | 95 | 1018.3 |
| 20260507075827 | 39 | 150 | 0.0 | 0.0 | 0.00 | 0.00 | 0.00 | 94 | 1018.3 |
| 20260507075323 | 39 | 150 | 0.0 | 0.0 | 0.00 | 0.00 | 0.00 | 94 | 1018.5 |
| 20260507074820 | 39 | 150 | 0.0 | 0.0 | 0.00 | 0.00 | 0.00 | 93 | 1018.5 |
| 20260507074317 | 39 | 150 | 0.0 | 0.0 | 0.00 | 0.00 | 0.00 | 93 | 1018.5 |
| 20260507073814 | 39 | 150 | 0.0 | 0.0 | 0.00 | 0.00 | 0.00 | 93 | 1018.6 |
| 20260507073311 | 39 | 150 | 0.0 | 0.0 | 0.00 | 0.00 | 0.00 | 92 | 1018.6 |
| 20260507072808 | 39 | 150 | 0.0 | 0.0 | 0.00 | 0.00 | 0.00 | 92 | 1018.7 |
| 20260507072307 | 39 | 150 | 0.0 | 0.0 | 0.00 | 0.00 | 0.00 | 92 | 1018.6 |
| 20260507071803 | 40 | 150 | 0.0 | 0.0 | 0.00 | 0.00 | 0.00 | 91 | 1019.0 |
| 20260507071259 | 40 | 150 | 0.0 | 0.0 | 0.00 | 0.00 | 0.00 | 92 | 1018.7 |
| 20260507070756 | 40 | 150 | 0.0 | 0.0 | 0.00 | 0.00 | 0.00 | 91 | 1018.8 |
| 20260507070253 | 40 | 150 | 0.0 | 0.0 | 0.00 | 0.00 | 0.00 | 91 | 1018.9 |
| 20260507065750 | 40 | 150 | 0.0 | 0.0 | 0.00 | 0.00 | 0.00 | 91 | 1019.2 |
| 20260507065247 | 40 | 150 | 0.0 | 0.0 | 0.00 | 0.00 | 0.00 | 91 | 1019.0 |
| 20260507064744 | 40 | 150 | 0.0 | 0.0 | 0.00 | 0.00 | 0.00 | 90 | 1018.9 |
| 20260507064243 | 40 | 150 | 0.0 | 0.0 | 0.00 | 0.00 | 0.00 | 89 | 1018.9 |
| 20260507063740 | 40 | 150 | 0.0 | 0.0 | 0.00 | 0.00 | 0.00 | 88 | 1019.0 |
| 20260507063236 | 40 | 150 | 0.0 | 0.0 | 0.00 | 0.00 | 0.00 | 88 | 1018.9 |
| 20260507062733 | 41 | 150 | 0.0 | 0.0 | 0.00 | 0.00 | 0.00 | 87 | 1019.0 |
| 20260507062231 | 41 | 150 | 0.0 | 0.0 | 0.00 | 0.00 | 0.00 | 86 | 1018.8 |
| 20260507061729 | 41 | 150 | 0.0 | 0.0 | 0.00 | 0.00 | 0.00 | 86 | 1018.8 |
| 20260507061227 | 41 | 150 | 0.0 | 0.0 | 0.00 | 0.00 | 0.00 | 85 | 1018.9 |
| 20260507060724 | 42 | 150 | 0.0 | 0.0 | 0.00 | 0.00 | 0.00 | 84 | 1018.8 |
| 20260507060221 | 42 | 150 | 0.0 | 0.0 | 0.00 | 0.00 | 0.00 | 84 | 1019.0 |
| 20260507055716 | 42 | 150 | 0.0 | 0.0 | 0.00 | 0.00 | 0.00 | 83 | 1018.9 |
| 20260507055212 | 42 | 150 | 0.0 | 0.0 | 0.00 | 0.00 | 0.00 | 83 | 1019.0 |
| 20260507054709 | 42 | 150 | 0.0 | 0.0 | 0.00 | 0.00 | 0.00 | 81 | 1018.9 |
| 20260507054206 | 43 | 150 | 0.0 | 0.0 | 0.00 | 0.00 | 0.00 | 81 | 1019.0 |
| 20260507053703 | 43 | 150 | 0.0 | 0.0 | 0.00 | 0.00 | 0.00 | 81 | 1018.9 |
| 20260507053201 | 43 | 150 | 0.0 | 0.0 | 0.00 | 0.00 | 0.00 | 80 | 1019.1 |
| 20260507052700 | 43 | 150 | 0.0 | 0.0 | 0.00 | 0.00 | 0.00 | 80 | 1018.8 |
| 20260507052155 | 44 | 150 | 0.0 | 0.0 | 0.00 | 0.00 | 0.00 | 79 | 1019.0 |
| 20260507051653 | 44 | 150 | 0.0 | 0.0 | 0.00 | 0.00 | 0.00 | 77 | 1019.0 |
| 20260507051149 | 44 | 150 | 0.0 | 0.0 | 0.00 | 0.00 | 0.00 | 77 | 1018.7 |
| 20260507050647 | 44 | 150 | 0.0 | 0.0 | 0.00 | 0.00 | 0.00 | 76 | 1018.7 |
| 20260507050143 | 44 | 150 | 0.0 | 0.0 | 0.00 | 0.00 | 0.00 | 76 | 1018.5 |
| 20260507045640 | 45 | 150 | 0.0 | 0.0 | 0.00 | 0.00 | 0.00 | 75 | 1018.7 |
| 20260507045137 | 45 | 150 | 0.0 | 0.0 | 0.00 | 0.00 | 0.00 | 74 | 1018.6 |
| 20260507044634 | 46 | 150 | 0.0 | 0.0 | 0.00 | 0.00 | 0.00 | 73 | 1018.5 |
| 20260507044126 | 46 | 150 | 0.0 | 0.0 | 0.00 | 0.00 | 0.00 | 72 | 1018.8 |
| 20260507043621 | 47 | 148 | 0.0 | 0.0 | 0.00 | 0.00 | 0.00 | 71 | 1018.7 |
| 20260507043119 | 47 | 144 | 0.0 | 0.0 | 0.00 | 0.00 | 0.00 | 69 | 1018.7 |
| 20260507042614 | 48 | 146 | 0.0 | 0.0 | 0.00 | 0.00 | 0.00 | 69 | 1018.6 |
| 20260507042109 | 48 | 128 | 0.9 | 0.9 | 0.00 | 0.00 | 0.00 | 68 | 1018.5 |
| 20260507041606 | 48 | 143 | 0.0 | 0.9 | 0.00 | 0.00 | 0.00 | 68 | 1018.7 |
| 20260507041103 | 48 | 139 | 0.0 | 0.9 | 0.00 | 0.00 | 0.00 | 69 | 1018.6 |
| 20260507040600 | 48 | 115 | 0.9 | 0.9 | 0.00 | 0.00 | 0.00 | 71 | 1018.5 |
| 20260507040056 | 47 | 153 | 0.0 | 0.0 | 0.00 | 0.00 | 0.00 | 73 | 1018.7 |
| 20260507035552 | 47 | 154 | 0.0 | 0.0 | 0.00 | 0.00 | 0.00 | 73 | 1018.6 |
| 20260507035049 | 47 | 154 | 0.0 | 0.0 | 0.00 | 0.00 | 0.00 | 72 | 1018.4 |
| 20260507034545 | 48 | 154 | 0.0 | 0.0 | 0.00 | 0.00 | 0.00 | 70 | 1018.3 |
| 20260507034043 | 48 | 154 | 0.0 | 0.0 | 0.00 | 0.00 | 0.00 | 69 | 1018.4 |
| 20260507033541 | 48 | 154 | 0.0 | 0.0 | 0.00 | 0.00 | 0.00 | 68 | 1018.5 |
| 20260507033038 | 49 | 154 | 0.0 | 0.0 | 0.00 | 0.00 | 0.00 | 67 | 1018.4 |
| 20260507032535 | 50 | 154 | 0.0 | 0.0 | 0.00 | 0.00 | 0.00 | 66 | 1018.3 |
| 20260507032031 | 50 | 147 | 0.0 | 0.0 | 0.00 | 0.00 | 0.00 | 64 | 1018.4 |
| 20260507031527 | 50 | 149 | 0.0 | 0.9 | 0.00 | 0.00 | 0.00 | 64 | 1018.2 |
| 20260507031025 | 51 | 153 | 0.0 | 0.0 | 0.00 | 0.00 | 0.00 | 63 | 1018.3 |
| 20260507030522 | 51 | 134 | 0.0 | 0.9 | 0.00 | 0.00 | 0.00 | 63 | 1018.2 |
| 20260507030020 | 51 | 135 | 0.0 | 0.9 | 0.00 | 0.00 | 0.00 | 63 | 1018.0 |
| 20260507025516 | 51 | 150 | 0.0 | 0.0 | 0.00 | 0.00 | 0.00 | 63 | 1017.9 |
| 20260507025014 | 51 | 111 | 0.0 | 0.9 | 0.00 | 0.00 | 0.00 | 61 | 1018.1 |
| 20260507024512 | 52 | 158 | 0.0 | 1.7 | 0.00 | 0.00 | 0.00 | 62 | 1018.0 |
| 20260507024008 | 52 | 112 | 0.9 | 0.9 | 0.00 | 0.00 | 0.00 | 61 | 1017.9 |
| 20260507023504 | 52 | 127 | 0.0 | 0.9 | 0.00 | 0.00 | 0.00 | 62 | 1018.0 |
| 20260507023001 | 52 | 82 | 0.9 | 0.9 | 0.00 | 0.00 | 0.00 | 62 | 1018.2 |
| 20260507022458 | 52 | 148 | 0.0 | 0.0 | 0.00 | 0.00 | 0.00 | 62 | 1018.3 |
| 20260507021953 | 52 | 139 | 0.0 | 0.9 | 0.00 | 0.00 | 0.00 | 62 | 1017.9 |
| 20260507021449 | 52 | 146 | 0.0 | 0.0 | 0.00 | 0.00 | 0.00 | 62 | 1017.8 |
| 20260507020947 | 52 | 152 | 0.0 | 0.0 | 0.00 | 0.00 | 0.00 | 61 | 1018.2 |
| 20260507020444 | 53 | 152 | 0.0 | 0.0 | 0.00 | 0.00 | 0.00 | 60 | 1017.9 |
| 20260507015940 | 53 | 152 | 0.0 | 0.0 | 0.00 | 0.00 | 0.00 | 59 | 1017.6 |
| 20260507015439 | 54 | 148 | 0.0 | 0.0 | 0.00 | 0.00 | 0.00 | 58 | 1017.7 |
| 20260507014935 | 54 | 148 | 0.0 | 0.0 | 0.00 | 0.00 | 0.00 | 57 | 1017.6 |
| 20260507014432 | 54 | 109 | 0.9 | 0.9 | 0.00 | 0.00 | 0.00 | 57 | 1017.5 |
| 20260507013928 | 55 | 141 | 0.0 | 0.9 | 0.00 | 0.00 | 0.00 | 57 | 1017.5 |
| 20260507013425 | 55 | 150 | 0.0 | 0.0 | 0.00 | 0.00 | 0.00 | 57 | 1017.3 |
| 20260507012923 | 55 | 156 | 0.0 | 0.9 | 0.00 | 0.00 | 0.00 | 57 | 1017.5 |
| 20260507012419 | 55 | 29 | 1.7 | 4.3 | 0.00 | 0.00 | 0.00 | 55 | 1017.5 |
| 20260507011911 | 55 | 149 | 0.0 | 0.9 | 0.00 | 0.00 | 0.00 | 56 | 1017.3 |
| 20260507011408 | 56 | 141 | 0.0 | 1.7 | 0.00 | 0.00 | 0.00 | 56 | 1017.4 |
| 20260507010907 | 56 | 30 | 1.7 | 2.6 | 0.00 | 0.00 | 0.00 | 54 | 1017.3 |
| 20260507010402 | 56 | 138 | 0.0 | 1.7 | 0.00 | 0.00 | 0.00 | 55 | 1017.1 |
| 20260507005900 | 56 | 156 | 0.9 | 0.9 | 0.00 | 0.00 | 0.00 | 54 | 1017.1 |
| 20260507005356 | 57 | 124 | 0.9 | 0.9 | 0.00 | 0.00 | 0.00 | 54 | 1017.3 |
| 20260507004853 | 57 | 27 | 1.7 | 4.3 | 0.00 | 0.00 | 0.00 | 54 | 1016.8 |
| 20260507004350 | 57 | 80 | 0.9 | 2.6 | 0.00 | 0.00 | 0.00 | 53 | 1017.0 |
| 20260507003850 | 57 | 51 | 1.7 | 2.6 | 0.00 | 0.00 | 0.00 | 52 | 1017.0 |
| 20260507003343 | 58 | 21 | 2.6 | 2.6 | 0.00 | 0.00 | 0.00 | 51 | 1016.8 |
| 20260507002838 | 58 | 70 | 1.7 | 2.6 | 0.00 | 0.00 | 0.00 | 51 | 1016.8 |
| 20260507002335 | 58 | 51 | 0.9 | 2.6 | 0.00 | 0.00 | 0.00 | 50 | 1016.8 |
| 20260507001832 | 58 | 52 | 1.7 | 6.1 | 0.00 | 0.00 | 0.00 | 50 | 1016.7 |
| 20260507001329 | 59 | 144 | 1.7 | 2.6 | 0.00 | 0.00 | 0.00 | 49 | 1016.5 |
| 20260507000825 | 59 | 115 | 0.0 | 0.9 | 0.00 | 0.00 | 0.00 | 51 | 1016.7 |
| 20260507000321 | 59 | 347 | 1.7 | 5.2 | 0.00 | 0.00 | 0.00 | 50 | 1016.6 |
| 20260506235818 | 59 | 357 | 2.6 | 6.1 | 0.00 | 0.00 | 0.00 | 51 | 1016.6 |
| 20260506235314 | 59 | 4 | 2.6 | 4.3 | 0.00 | 0.00 | 0.00 | 50 | 1016.4 |
| 20260506234810 | 60 | 342 | 0.9 | 4.3 | 0.00 | 0.00 | 0.00 | 50 | 1016.3 |
| 20260506234308 | 60 | 66 | 0.9 | 4.3 | 0.00 | 0.00 | 0.00 | 49 | 1015.9 |
| 20260506233806 | 61 | 7 | 1.7 | 6.1 | 0.00 | 0.00 | 0.00 | 47 | 1015.9 |
| 20260506233256 | 60 | 322 | 2.6 | 5.2 | 0.00 | 0.00 | 0.00 | 46 | 1016.0 |
| 20260506232753 | 60 | 8 | 1.7 | 5.2 | 0.00 | 0.00 | 0.00 | 46 | 1015.9 |
| 20260506232248 | 60 | 28 | 3.5 | 5.2 | 0.00 | 0.00 | 0.00 | 45 | 1015.8 |
| 20260506231745 | 60 | 39 | 0.9 | 4.3 | 0.00 | 0.00 | 0.00 | 45 | 1016.1 |
| 20260506231243 | 60 | 338 | 1.7 | 5.2 | 0.00 | 0.00 | 0.00 | 44 | 1016.0 |
| 20260506230739 | 61 | 303 | 1.7 | 6.1 | 0.00 | 0.00 | 0.00 | 44 | 1016.2 |
| 20260506230236 | 61 | 107 | 0.0 | 1.7 | 0.00 | 0.00 | 0.00 | 48 | 1016.2 |
| 20260506225733 | 60 | 46 | 0.9 | 4.3 | 0.00 | 0.00 | 0.00 | 47 | 1016.1 |
| 20260506225230 | 61 | 3 | 2.6 | 5.2 | 0.00 | 0.00 | 0.00 | 46 | 1016.1 |
| 20260506224726 | 61 | 163 | 2.6 | 4.3 | 0.00 | 0.00 | 0.00 | 46 | 1015.9 |
| 20260506224224 | 62 | 348 | 2.6 | 5.2 | 0.00 | 0.00 | 0.00 | 46 | 1016.0 |
| 20260506223720 | 62 | 345 | 0.9 | 2.6 | 0.00 | 0.00 | 0.00 | 44 | 1016.0 |
| 20260506223215 | 62 | 352 | 1.7 | 4.3 | 0.00 | 0.00 | 0.00 | 46 | 1015.9 |
| 20260506222713 | 62 | 2 | 2.6 | 6.1 | 0.00 | 0.00 | 0.00 | 46 | 1015.9 |
| 20260506222208 | 62 | 15 | 2.6 | 2.6 | 0.00 | 0.00 | 0.00 | 46 | 1015.8 |
| 20260506221707 | 62 | 354 | 0.9 | 4.3 | 0.00 | 0.00 | 0.00 | 46 | 1016.0 |
| 20260506221204 | 62 | 18 | 4.3 | 7.0 | 0.00 | 0.00 | 0.00 | 45 | 1015.8 |
| 20260506220701 | 62 | 335 | 1.7 | 4.3 | 0.00 | 0.00 | 0.00 | 44 | 1015.8 |
| 20260506220156 | 62 | 8 | 1.7 | 2.6 | 0.00 | 0.00 | 0.00 | 47 | 1015.8 |
| 20260506215653 | 62 | 359 | 3.5 | 4.3 | 0.00 | 0.00 | 0.00 | 47 | 1015.8 |
| 20260506215148 | 62 | 69 | 1.7 | 2.6 | 0.00 | 0.00 | 0.00 | 47 | 1016.1 |
| 20260506214645 | 62 | 354 | 2.6 | 6.1 | 0.00 | 0.00 | 0.00 | 45 | 1015.9 |
| 20260506214143 | 62 | 319 | 2.6 | 5.2 | 0.00 | 0.00 | 0.00 | 46 | 1015.9 |
| 20260506213641 | 62 | 350 | 1.7 | 4.3 | 0.00 | 0.00 | 0.00 | 46 | 1015.8 |
| 20260506213138 | 63 | 10 | 4.3 | 5.2 | 0.00 | 0.00 | 0.00 | 45 | 1016.0 |
| 20260506212635 | 62 | 89 | 1.7 | 5.2 | 0.00 | 0.00 | 0.00 | 45 | 1016.0 |
| 20260506212130 | 61 | 208 | 3.5 | 4.3 | 0.00 | 0.00 | 0.00 | 46 | 1016.3 |
| 20260506211626 | 62 | 319 | 2.6 | 5.2 | 0.00 | 0.00 | 0.00 | 45 | 1016.4 |
| 20260506211123 | 61 | 212 | 0.9 | 2.6 | 0.00 | 0.00 | 0.00 | 47 | 1016.5 |
| 20260506210620 | 62 | 334 | 0.9 | 4.3 | 0.00 | 0.00 | 0.00 | 48 | 1016.4 |
| 20260506210116 | 62 | 8 | 2.6 | 4.3 | 0.00 | 0.00 | 0.00 | 47 | 1016.5 |
| 20260506205613 | 61 | 267 | 0.9 | 2.6 | 0.00 | 0.00 | 0.00 | 47 | 1016.4 |
| 20260506205108 | 62 | 18 | 1.7 | 5.2 | 0.00 | 0.00 | 0.00 | 49 | 1016.4 |
| 20260506204606 | 63 | 73 | 0.0 | 2.6 | 0.00 | 0.00 | 0.00 | 52 | 1016.5 |
| 20260506204103 | 62 | 210 | 1.7 | 1.7 | 0.00 | 0.00 | 0.00 | 47 | 1016.3 |
| 20260506203601 | 62 | 317 | 4.3 | 5.2 | 0.00 | 0.00 | 0.00 | 47 | 1016.5 |
| 20260506203057 | 62 | 21 | 4.3 | 6.1 | 0.00 | 0.00 | 0.00 | 49 | 1016.3 |
| 20260506202555 | 63 | 93 | 2.6 | 5.2 | 0.00 | 0.00 | 0.00 | 48 | 1016.7 |
| 20260506202051 | 63 | 323 | 3.5 | 5.2 | 0.00 | 0.00 | 0.00 | 49 | 1016.7 |
| 20260506201549 | 62 | 341 | 0.9 | 4.3 | 0.00 | 0.00 | 0.00 | 47 | 1016.5 |
| 20260506201045 | 62 | 3 | 2.6 | 4.3 | 0.00 | 0.00 | 0.00 | 50 | 1016.8 |
| 20260506200541 | 63 | 357 | 4.3 | 6.1 | 0.00 | 0.00 | 0.00 | 49 | 1016.8 |
| 20260506200038 | 61 | 223 | 1.7 | 1.7 | 0.00 | 0.00 | 0.00 | 49 | 1016.8 |
| 20260506195535 | 62 | 341 | 2.6 | 6.1 | 0.00 | 0.00 | 0.00 | 48 | 1016.8 |
| 20260506195032 | 62 | 58 | 2.6 | 4.3 | 0.00 | 0.00 | 0.00 | 47 | 1017.0 |
| 20260506194529 | 62 | 189 | 0.9 | 4.3 | 0.00 | 0.00 | 0.00 | 51 | 1017.0 |
| 20260506194026 | 63 | 289 | 2.6 | 6.1 | 0.00 | 0.00 | 0.00 | 48 | 1016.8 |
| 20260506193523 | 62 | 352 | 0.0 | 1.7 | 0.00 | 0.00 | 0.00 | 51 | 1017.0 |
| 20260506193020 | 62 | 8 | 3.5 | 6.1 | 0.00 | 0.00 | 0.00 | 52 | 1017.0 |
| 20260506192517 | 61 | 229 | 0.0 | 2.6 | 0.00 | 0.00 | 0.00 | 53 | 1017.3 |
| 20260506192013 | 60 | 149 | 1.7 | 2.6 | 0.00 | 0.00 | 0.00 | 53 | 1017.7 |
| 20260506191510 | 61 | 347 | 0.9 | 4.3 | 0.00 | 0.00 | 0.00 | 54 | 1017.5 |
| 20260506191006 | 60 | 185 | 0.0 | 2.6 | 0.00 | 0.00 | 0.00 | 55 | 1017.6 |
| 20260506190503 | 61 | 304 | 0.9 | 4.3 | 0.00 | 0.00 | 0.00 | 53 | 1017.5 |
| 20260506185959 | 61 | 333 | 3.5 | 4.3 | 0.00 | 0.00 | 0.00 | 53 | 1017.9 |
| 20260506185457 | 60 | 332 | 0.9 | 1.7 | 0.00 | 0.00 | 0.00 | 54 | 1017.9 |
| 20260506184953 | 59 | 31 | 2.6 | 4.3 | 0.00 | 0.00 | 0.00 | 56 | 1017.7 |
| 20260506184451 | 60 | 185 | 0.9 | 4.3 | 0.00 | 0.00 | 0.00 | 60 | 1017.9 |
| 20260506183948 | 61 | 233 | 0.9 | 1.7 | 0.00 | 0.00 | 0.00 | 58 | 1018.1 |
| 20260506183443 | 61 | 192 | 0.0 | 0.9 | 0.00 | 0.00 | 0.00 | 62 | 1018.4 |
| 20260506182941 | 59 | 171 | 0.9 | 1.7 | 0.00 | 0.00 | 0.00 | 62 | 1018.2 |
| 20260506182438 | 58 | 66 | 0.0 | 0.9 | 0.00 | 0.00 | 0.00 | 59 | 1018.7 |
| 20260506181935 | 59 | 3 | 3.5 | 4.3 | 0.00 | 0.00 | 0.00 | 58 | 1018.5 |
| 20260506181433 | 59 | 184 | 0.0 | 2.6 | 0.00 | 0.00 | 0.00 | 61 | 1018.6 |
| 20260506180929 | 58 | 13 | 0.9 | 4.3 | 0.00 | 0.00 | 0.00 | 61 | 1018.7 |
| 20260506180426 | 59 | 337 | 1.7 | 2.6 | 0.00 | 0.00 | 0.00 | 61 | 1018.6 |
| 20260506175923 | 59 | 183 | 0.0 | 0.9 | 0.00 | 0.00 | 0.00 | 66 | 1018.4 |
| 20260506175420 | 58 | 324 | 0.9 | 4.3 | 0.00 | 0.00 | 0.00 | 63 | 1018.2 |
| 20260506174916 | 58 | 342 | 1.7 | 6.1 | 0.00 | 0.00 | 0.00 | 63 | 1018.3 |
| 20260506174414 | 59 | 300 | 2.6 | 2.6 | 0.00 | 0.00 | 0.00 | 62 | 1018.3 |
| 20260506173911 | 58 | 309 | 1.7 | 2.6 | 0.00 | 0.00 | 0.00 | 61 | 1018.5 |
| 20260506173408 | 58 | 52 | 0.0 | 4.3 | 0.00 | 0.00 | 0.00 | 60 | 1018.7 |
| 20260506172859 | 58 | 117 | 0.0 | 1.7 | 0.00 | 0.00 | 0.00 | 63 | 1018.8 |
| 20260506172355 | 58 | 91 | 0.0 | 4.3 | 0.00 | 0.00 | 0.00 | 62 | 1018.7 |
| 20260506171853 | 57 | 122 | 0.9 | 2.6 | 0.00 | 0.00 | 0.00 | 64 | 1018.5 |
| 20260506171350 | 57 | 18 | 0.9 | 1.7 | 0.00 | 0.00 | 0.00 | 64 | 1018.6 |
| 20260506170848 | 57 | 11 | 0.9 | 1.7 | 0.00 | 0.00 | 0.00 | 63 | 1018.5 |
| 20260506170344 | 58 | 169 | 1.7 | 4.3 | 0.00 | 0.00 | 0.00 | 64 | 1018.1 |
| 20260506165843 | 58 | 1 | 2.6 | 4.3 | 0.00 | 0.00 | 0.00 | 63 | 1018.2 |
| 20260506165340 | 58 | 340 | 2.6 | 4.3 | 0.00 | 0.00 | 0.00 | 63 | 1017.9 |
| 20260506164836 | 56 | 186 | 0.9 | 2.6 | 0.00 | 0.00 | 0.00 | 67 | 1018.1 |
| 20260506164333 | 57 | 59 | 1.7 | 4.3 | 0.00 | 0.00 | 0.00 | 64 | 1018.0 |
| 20260506163825 | 56 | 136 | 0.9 | 7.0 | 0.00 | 0.00 | 0.00 | 66 | 1017.7 |
| 20260506163325 | 56 | 26 | 0.9 | 2.6 | 0.00 | 0.00 | 0.00 | 65 | 1017.8 |
| 20260506162821 | 57 | 352 | 2.6 | 2.6 | 0.00 | 0.00 | 0.00 | 62 | 1017.9 |
| 20260506162319 | 58 | 173 | 1.7 | 1.7 | 0.00 | 0.00 | 0.00 | 67 | 1017.9 |
| 20260506161816 | 58 | 173 | 0.0 | 0.9 | 0.00 | 0.00 | 0.00 | 68 | 1017.9 |
| 20260506161313 | 57 | 186 | 1.7 | 2.6 | 0.00 | 0.00 | 0.00 | 66 | 1018.0 |
| 20260506160806 | 56 | 82 | 2.6 | 4.3 | 0.00 | 0.00 | 0.00 | 63 | 1018.0 |
| 20260506160302 | 56 | 269 | 1.7 | 2.6 | 0.00 | 0.00 | 0.00 | 66 | 1017.9 |
| 20260506155801 | 55 | 182 | 0.9 | 2.6 | 0.00 | 0.00 | 0.00 | 70 | 1017.9 |
| 20260506155257 | 54 | 83 | 1.7 | 1.7 | 0.00 | 0.00 | 0.00 | 68 | 1017.6 |
| 20260506153409 | 54 | 252 | 2.6 | 5.2 | 0.00 | 0.00 | 0.00 | 67 | 1017.7 |
| 20260506152907 | 54 | 134 | 0.9 | 2.6 | 0.00 | 0.00 | 0.00 | 72 | 1017.7 |
| 20260506152403 | 53 | 225 | 0.9 | 1.7 | 0.00 | 0.00 | 0.00 | 71 | 1017.5 |
| 20260506151902 | 53 | 343 | 2.6 | 2.6 | 0.00 | 0.00 | 0.00 | 71 | 1017.5 |
| 20260506151358 | 53 | 4 | 0.9 | 0.9 | 0.00 | 0.00 | 0.00 | 72 | 1017.6 |
| 20260506150856 | 52 | 161 | 0.0 | 0.9 | 0.00 | 0.00 | 0.00 | 75 | 1017.9 |
| 20260506150352 | 51 | 308 | 2.6 | 2.6 | 0.00 | 0.00 | 0.00 | 75 | 1018.0 |
| 20260506145849 | 51 | 203 | 0.9 | 2.6 | 0.00 | 0.00 | 0.00 | 74 | 1017.6 |
| 20260506145345 | 50 | 8 | 0.9 | 5.2 | 0.00 | 0.00 | 0.00 | 75 | 1017.9 |
| 20260506144843 | 50 | 325 | 2.6 | 5.2 | 0.00 | 0.00 | 0.00 | 75 | 1018.0 |
| 20260506144339 | 50 | 322 | 1.7 | 5.2 | 0.00 | 0.00 | 0.00 | 76 | 1017.9 |
| 20260506143838 | 50 | 68 | 0.9 | 1.7 | 0.00 | 0.00 | 0.00 | 78 | 1017.6 |
| 20260506143335 | 50 | 55 | 1.7 | 4.3 | 0.00 | 0.00 | 0.00 | 78 | 1017.6 |
| 20260506142833 | 49 | 47 | 1.7 | 2.6 | 0.00 | 0.00 | 0.00 | 79 | 1017.6 |
| 20260506142331 | 49 | 38 | 2.6 | 4.3 | 0.00 | 0.00 | 0.00 | 80 | 1017.4 |
| 20260506141829 | 48 | 17 | 0.9 | 1.7 | 0.00 | 0.00 | 0.00 | 82 | 1017.6 |
| 20260506141327 | 48 | 335 | 1.7 | 2.6 | 0.00 | 0.00 | 0.00 | 83 | 1017.7 |
| 20260506140824 | 48 | 11 | 1.7 | 2.6 | 0.00 | 0.00 | 0.00 | 83 | 1017.8 |
| 20260506140321 | 48 | 11 | 1.7 | 4.3 | 0.00 | 0.00 | 0.00 | 82 | 1017.6 |
| 20260506135818 | 48 | 144 | 0.0 | 1.7 | 0.00 | 0.00 | 0.00 | 85 | 1017.6 |
| 20260506135315 | 47 | 353 | 1.7 | 2.6 | 0.00 | 0.00 | 0.00 | 85 | 1017.4 |
| 20260506134811 | 47 | 150 | 0.0 | 2.6 | 0.00 | 0.00 | 0.00 | 86 | 1017.4 |
| 20260506134308 | 47 | 104 | 0.0 | 2.6 | 0.00 | 0.00 | 0.00 | 85 | 1017.6 |
| 20260506133805 | 47 | 170 | 1.7 | 2.6 | 0.00 | 0.00 | 0.00 | 86 | 1017.4 |
| 20260506133301 | 47 | 298 | 0.9 | 4.3 | 0.00 | 0.00 | 0.00 | 87 | 1017.4 |